�N����,����,�~����,�C��,���x,�C��,����,���ϕ���,�ő�u�ԕ���,�ő厞����,���˗�,�I�_���x,�n�����x,�ő啗���N��,DTYPE
"18/07/27","00:10",0.0,27.8,76.1,1000.3,342.1,0.6,1.7,353.1,0.00,23.2,28.2,"00:08:56",1
"18/07/27","00:20",0.0,27.7,76.6,1000.5,325.4,0.6,1.3,341.0,0.00,23.3,28.1,"00:16:08",1
"18/07/27","00:30",0.0,27.6,77.2,1000.0,303.0,0.5,1.0,303.0,0.00,23.3,28.1,"00:25:52",1
"18/07/27","00:40",0.0,27.6,77.1,1000.3,328.5,0.7,1.2,355.9,0.00,23.3,28.0,"00:34:56",1
"18/07/27","00:50",0.0,27.6,76.7,1000.3,352.7,0.7,2.8,356.3,0.00,23.2,27.9,"00:46:48",1
"18/07/27","01:00",0.0,27.6,76.8,1000.3,351.8,0.8,2.6,359.1,0.00,23.2,28.1,"00:57:36",1
"18/07/27","01:10",0.0,27.6,76.8,1000.3,3.1,0.6,1.8,0.1,0.00,23.2,28.0,"01:09:52",1
"18/07/27","01:20",0.0,27.6,76.9,1000.3,341.2,0.5,1.4,15.3,0.00,23.2,28.0,"01:19:20",1
"18/07/27","01:30",0.0,27.4,77.2,1000.5,349.6,0.5,1.9,348.7,0.00,23.1,28.0,"01:28:24",1
"18/07/27","01:40",0.0,27.5,77.0,1000.5,8.0,0.7,1.6,357.3,0.00,23.1,27.8,"01:33:12",1
"18/07/27","01:50",0.0,27.5,76.9,1000.3,6.8,0.7,1.9,33.1,0.00,23.1,27.9,"01:44:00",1
"18/07/27","02:00",0.0,27.3,77.2,1000.5,357.0,0.7,1.7,355.9,0.00,23.0,27.9,"01:58:24",1
"18/07/27","02:10",0.0,27.3,77.4,1000.3,359.6,0.7,1.8,343.6,0.00,23.0,27.9,"02:00:02",1
"18/07/27","02:20",0.0,27.2,77.9,1000.5,358.9,0.7,2.1,356.7,0.00,23.0,27.7,"02:16:00",1
"18/07/27","02:30",0.0,27.1,78.3,1000.5,346.1,0.6,1.7,49.7,0.00,23.0,27.7,"02:25:44",1
"18/07/27","02:40",0.0,27.1,78.4,1000.5,352.6,0.8,2.5,346.9,0.00,23.1,27.4,"02:39:36",1
"18/07/27","02:50",0.0,27.1,78.9,1000.3,327.0,0.7,1.7,343.7,0.00,23.2,27.6,"02:42:24",1
"18/07/27","03:00",0.0,26.8,79.8,1000.3,332.6,0.6,1.1,335.3,0.00,23.1,27.6,"02:52:16",1
"18/07/27","03:10",0.0,26.7,80.5,1000.8,331.2,0.8,1.9,347.3,0.00,23.1,27.5,"03:09:52",1
"18/07/27","03:20",0.0,26.6,81.4,1000.5,343.4,0.7,1.3,338.9,0.00,23.2,27.8,"03:18:48",1
"18/07/27","03:30",0.0,26.5,82.1,1000.5,336.8,0.7,1.2,327.4,0.00,23.2,27.6,"03:27:20",1
"18/07/27","03:40",0.0,26.4,82.3,1000.5,330.1,0.8,1.6,338.2,0.00,23.2,27.6,"03:38:16",1
"18/07/27","03:50",0.0,26.5,82.0,1000.3,334.1,0.7,1.2,329.0,0.00,23.2,27.6,"03:47:36",1
"18/07/27","04:00",0.0,26.4,82.0,1000.8,324.1,1.1,1.8,339.2,0.00,23.1,27.4,"03:59:36",1
"18/07/27","04:10",0.0,26.3,82.5,1000.3,331.4,0.8,1.4,350.1,0.00,23.1,27.5,"04:00:08",1
"18/07/27","04:20",0.0,26.1,82.8,1000.5,333.5,0.8,1.3,344.4,0.00,23.0,27.5,"04:16:00",1
"18/07/27","04:30",0.0,25.7,83.4,1000.5,321.0,0.8,1.2,337.5,0.00,22.7,27.5,"04:20:24",1
"18/07/27","04:40",0.0,25.4,84.6,1000.8,342.7,0.7,1.8,339.8,0.00,22.7,27.2,"04:37:20",1
"18/07/27","04:50",0.0,25.2,85.3,1000.8,301.7,0.6,1.3,334.7,0.00,22.6,27.1,"04:40:40",1
"18/07/27","05:00",0.0,25.0,86.3,1000.8,303.0,0.6,1.1,339.6,0.00,22.6,27.1,"04:58:00",1
"18/07/27","05:10",0.0,24.9,87.0,1000.8,293.5,0.6,1.1,309.7,0.00,22.6,27.1,"05:09:28",1
"18/07/27","05:20",0.0,25.0,86.8,1001.0,286.5,0.6,1.0,310.1,0.00,22.7,27.0,"05:10:16",1
"18/07/27","05:30",0.0,25.0,86.5,1001.2,276.9,0.6,1.1,279.1,0.00,22.6,27.1,"05:29:28",1
"18/07/27","05:40",0.0,25.0,86.8,1001.0,283.4,0.7,1.3,314.8,0.00,22.7,26.9,"05:32:40",1
"18/07/27","05:50",0.0,24.9,86.8,1000.8,290.7,0.6,1.0,319.6,0.00,22.6,26.9,"05:40:02",1
"18/07/27","06:00",0.0,24.9,87.1,1001.0,285.6,0.6,0.9,313.6,0.00,22.6,26.8,"05:50:08",1
"18/07/27","06:10",0.0,25.1,87.2,1001.5,283.8,0.6,1.2,256.0,0.01,22.9,26.8,"06:07:36",1
"18/07/27","06:20",0.0,25.3,87.0,1001.0,276.7,0.7,1.2,241.8,0.02,23.0,26.7,"06:14:24",1
"18/07/27","06:30",0.0,25.6,86.2,1001.2,272.9,0.7,1.2,257.2,0.02,23.2,26.8,"06:25:20",1
"18/07/27","06:40",0.0,25.9,85.8,1001.2,292.5,0.6,0.9,260.8,0.02,23.4,26.8,"06:30:08",1
"18/07/27","06:50",0.0,26.0,85.3,1001.5,287.6,0.6,1.0,308.7,0.01,23.4,26.8,"06:49:12",1
"18/07/27","07:00",0.0,26.0,84.8,1001.2,307.8,0.8,1.4,329.9,0.02,23.3,26.8,"06:56:48",1
"18/07/27","07:10",0.0,26.4,84.7,1001.2,331.5,1.1,1.8,335.8,0.04,23.7,27.0,"07:02:08",1
"18/07/27","07:20",0.0,26.4,84.1,1001.2,325.4,0.8,1.4,339.8,0.05,23.5,26.9,"07:11:04",1
"18/07/27","07:30",0.0,26.9,82.5,1001.5,322.8,1.0,2.4,329.2,0.08,23.7,27.1,"07:24:24",1
"18/07/27","07:40",0.0,27.3,80.0,1001.2,320.4,0.3,1.0,328.8,0.09,23.6,27.0,"07:35:20",1
"18/07/27","07:50",0.0,28.3,75.7,1001.0,335.2,0.6,1.1,334.7,0.17,23.6,27.1,"07:45:04",1
"18/07/27","08:00",0.0,29.2,73.0,1000.8,23.6,0.5,1.3,18.9,0.24,23.9,27.2,"07:52:24",1
"18/07/27","08:10",0.0,29.4,70.6,1001.2,13.0,0.7,1.7,332.9,0.24,23.5,27.3,"08:02:40",1
"18/07/27","08:20",0.0,28.7,72.8,1001.5,307.3,0.6,1.4,230.4,0.18,23.4,27.2,"08:12:32",1
"18/07/27","08:30",0.0,28.8,71.1,1001.2,15.3,0.8,2.1,16.9,0.16,23.1,27.4,"08:22:32",1
"18/07/27","08:40",0.0,28.9,71.9,1001.5,77.2,0.7,2.1,358.7,0.15,23.4,27.4,"08:31:28",1
"18/07/27","08:50",0.0,29.6,69.6,1001.7,122.2,0.7,1.6,153.2,0.25,23.5,27.5,"08:42:48",1
"18/07/27","09:00",0.0,29.1,70.7,1001.7,6.0,0.7,2.8,343.3,0.22,23.3,27.7,"08:55:12",1
"18/07/27","09:10",0.0,30.0,69.2,1001.7,351.6,0.7,2.2,302.6,0.24,23.8,27.8,"09:06:24",1
"18/07/27","09:20",0.0,30.1,67.6,1001.9,187.6,0.7,2.0,209.2,0.39,23.5,27.8,"09:16:08",1
"18/07/27","09:30",0.0,31.0,63.7,1001.9,53.9,0.8,2.1,26.8,0.37,23.4,28.0,"09:25:36",1
"18/07/27","09:40",0.0,29.7,65.7,1002.2,75.4,1.1,2.8,12.2,0.21,22.6,28.2,"09:30:32",1
"18/07/27","09:50",0.0,29.5,67.1,1001.9,27.0,0.8,2.2,5.1,0.10,22.8,28.2,"09:49:52",1
"18/07/27","10:00",0.0,29.5,68.1,1001.2,168.9,0.7,2.4,125.9,0.12,23.0,28.2,"09:59:04",1
"18/07/27","10:10",0.0,30.9,62.7,1001.5,76.5,0.6,1.8,116.7,0.29,23.0,28.2,"10:00:48",1
"18/07/27","10:20",0.0,32.5,58.7,1001.9,57.2,0.7,1.7,16.7,0.52,23.4,28.6,"10:13:52",1
"18/07/27","10:30",0.0,30.5,63.6,1002.2,142.6,1.1,2.4,125.4,0.28,22.9,28.7,"10:23:20",1
"18/07/27","10:40",0.0,30.6,63.9,1001.9,166.4,0.7,2.1,126.7,0.17,23.0,28.7,"10:30:02",1
"18/07/27","10:50",0.0,31.5,62.3,1001.9,164.8,1.0,1.8,170.4,0.34,23.5,29.0,"10:48:08",1
"18/07/27","11:00",0.0,30.9,63.9,1001.9,137.4,1.0,2.7,148.8,0.27,23.3,29.0,"10:53:04",1
"18/07/27","11:10",0.0,31.4,62.2,1001.7,152.6,1.0,2.8,225.2,0.21,23.3,29.0,"11:04:00",1
"18/07/27","11:20",0.0,31.2,60.4,1001.7,76.3,0.8,1.8,51.1,0.18,22.7,29.0,"11:18:24",1
"18/07/27","11:30",0.0,31.3,59.4,1001.7,155.3,0.7,1.8,193.7,0.19,22.5,29.1,"11:24:16",1
"18/07/27","11:40",0.0,32.1,59.8,1001.5,142.7,1.3,2.8,169.9,0.38,23.3,29.1,"11:38:00",1
"18/07/27","11:50",0.0,31.7,57.6,1001.5,160.8,1.6,3.4,195.9,0.37,22.3,29.5,"11:46:16",1
"18/07/27","12:00",0.0,31.3,61.4,1001.5,168.6,1.1,2.7,213.3,0.11,23.0,29.4,"11:55:52",1
"18/07/27","12:10",0.0,32.8,54.3,1001.5,171.4,1.6,3.4,226.9,0.42,22.4,29.8,"12:09:12",1
"18/07/27","12:20",0.0,32.6,56.9,1001.2,133.1,1.2,2.4,70.6,0.20,23.0,29.7,"12:18:00",1
"18/07/27","12:30",0.0,33.3,53.0,1001.7,180.0,1.2,3.2,196.9,0.45,22.5,29.9,"12:29:20",1
"18/07/27","12:40",0.0,33.4,55.8,1001.7,127.4,1.2,2.9,65.7,0.40,23.4,30.2,"12:34:32",1
"18/07/27","12:50",0.0,33.5,54.5,1001.5,161.3,0.7,1.9,169.8,0.40,23.1,30.3,"12:49:36",1
"18/07/27","13:00",0.0,33.2,54.7,1001.7,155.9,1.5,2.7,208.2,0.32,22.9,30.3,"12:56:48",1
"18/07/27","13:10",0.0,33.1,54.5,1001.2,115.0,0.8,2.2,352.0,0.29,22.7,30.4,"13:01:28",1
"18/07/27","13:20",0.0,33.0,56.7,1001.0,133.7,0.8,2.6,133.2,0.20,23.3,30.3,"13:12:56",1
"18/07/27","13:30",0.0,33.4,53.6,1001.2,160.8,1.1,2.7,190.4,0.42,22.7,30.6,"13:21:36",1
"18/07/27","13:40",0.0,32.9,54.9,1001.0,129.8,0.8,2.1,171.3,0.24,22.7,30.3,"13:38:32",1
"18/07/27","13:50",0.0,33.4,50.9,1000.8,162.2,0.8,1.9,149.9,0.27,21.9,30.6,"13:40:24",1
"18/07/27","14:00",0.0,33.8,51.0,1000.8,14.3,1.0,2.0,60.3,0.26,22.3,30.4,"13:52:40",1
"18/07/27","14:10",0.0,34.0,47.2,1000.8,87.3,0.6,2.6,60.3,0.39,21.2,30.4,"14:07:04",1
"18/07/27","14:20",0.0,34.6,48.1,1000.5,139.5,0.5,1.4,35.6,0.31,22.1,30.6,"14:16:56",1
"18/07/27","14:30",0.0,33.6,50.3,1000.3,101.2,0.8,2.4,133.4,0.22,21.9,30.6,"14:21:52",1
"18/07/27","14:40",0.0,34.6,49.1,1000.0,147.5,1.7,6.0,213.7,0.33,22.4,30.7,"14:37:04",1
"18/07/27","14:50",0.0,35.3,45.8,1000.3,99.3,1.5,2.7,126.8,0.50,21.9,30.8,"14:40:56",1
"18/07/27","15:00",0.0,35.3,46.8,1000.0,35.2,1.2,2.4,221.7,0.47,22.2,31.0,"14:58:40",1
"18/07/27","15:10",0.0,34.2,48.3,999.8,101.8,1.1,2.4,134.8,0.25,21.8,31.1,"15:00:40",1
"18/07/27","15:20",0.0,33.6,49.7,999.3,53.8,1.0,2.5,118.9,0.12,21.7,31.1,"15:19:28",1
"18/07/27","15:30",0.0,33.1,52.3,999.1,152.9,1.1,2.1,120.4,0.13,22.1,30.9,"15:22:16",1
"18/07/27","15:40",0.0,33.2,51.0,998.6,148.3,1.5,3.5,180.4,0.12,21.7,30.7,"15:37:52",1
"18/07/27","15:50",0.0,32.8,52.3,998.6,123.6,0.8,2.6,143.2,0.09,21.8,30.9,"15:48:40",1
"18/07/27","16:00",0.0,33.4,51.4,998.2,142.8,1.0,2.6,96.5,0.15,22.1,30.6,"15:55:36",1
"18/07/27","16:10",0.0,34.9,45.5,998.4,89.7,0.8,2.0,46.0,0.29,21.4,30.9,"16:04:00",1
"18/07/27","16:20",0.0,35.2,44.9,998.4,73.5,0.8,2.4,55.1,0.24,21.5,30.7,"16:17:12",1
"18/07/27","16:30",0.0,34.7,47.1,998.9,32.6,0.8,3.4,6.8,0.24,21.8,31.0,"16:28:32",1
"18/07/27","16:40",0.0,34.4,46.3,998.9,66.1,0.7,1.6,345.8,0.21,21.3,30.9,"16:31:12",1
"18/07/27","16:50",0.0,33.5,51.4,998.6,134.9,1.0,2.6,143.5,0.10,22.1,30.9,"16:48:32",1
"18/07/27","17:00",0.0,34.7,47.8,998.6,34.8,0.7,1.9,10.9,0.16,22.0,30.8,"16:53:36",1
"18/07/27","17:10",0.0,34.4,45.8,998.2,82.4,0.7,2.0,113.2,0.09,21.1,30.8,"17:00:32",1
"18/07/27","17:20",0.0,33.7,48.5,998.2,140.2,0.8,1.9,129.7,0.05,21.4,30.5,"17:16:48",1
"18/07/27","17:30",0.0,32.9,53.4,998.2,158.4,1.5,4.1,133.6,0.04,22.2,30.7,"17:23:04",1
"18/07/27","17:40",0.0,32.6,55.6,997.9,247.7,0.7,1.7,219.5,0.02,22.6,30.5,"17:32:00",1
"18/07/27","17:50",0.0,32.3,55.8,997.7,139.8,0.5,1.9,221.5,0.02,22.4,30.3,"17:49:28",1
"18/07/27","18:00",0.0,32.4,57.8,997.7,265.9,0.7,2.4,202.5,0.02,23.1,30.6,"17:50:56",1
"18/07/27","18:10",0.0,32.2,57.7,997.7,169.0,0.5,2.9,194.3,0.02,22.8,30.2,"18:09:52",1
"18/07/27","18:20",0.0,32.0,58.3,997.4,174.4,1.5,3.5,190.5,0.02,22.8,30.2,"18:10:02",1
"18/07/27","18:30",0.0,31.6,60.8,997.4,179.2,1.6,3.1,179.1,0.01,23.1,30.1,"18:20:16",1
"18/07/27","18:40",0.0,31.4,60.3,997.4,257.1,1.0,2.4,213.0,0.00,22.8,30.0,"18:31:44",1
"18/07/27","18:50",0.0,31.0,61.7,997.2,343.7,0.3,1.1,15.7,0.00,22.8,29.9,"18:40:56",1
"18/07/27","19:00",0.0,31.2,61.4,997.4,83.8,0.2,1.6,58.0,0.00,22.9,29.7,"18:58:56",1
"18/07/27","19:10",0.0,31.1,60.3,997.2,127.3,0.5,1.9,230.0,0.00,22.5,29.7,"19:09:52",1
"18/07/27","19:20",0.0,30.8,61.1,997.7,175.2,2.0,4.1,186.3,0.00,22.5,29.6,"19:14:40",1
"18/07/27","19:30",0.0,30.7,61.2,997.2,174.0,1.6,3.3,189.8,0.00,22.4,29.5,"19:27:20",1
"18/07/27","19:40",0.0,30.5,61.9,997.4,155.4,1.5,2.8,150.0,0.00,22.4,29.4,"19:36:08",1
"18/07/27","19:50",0.0,30.4,61.7,997.4,192.0,1.2,2.4,219.7,0.00,22.3,29.4,"19:46:56",1
"18/07/27","20:00",0.0,30.2,63.0,997.4,182.2,1.0,1.9,223.7,0.00,22.4,29.3,"19:50:08",1
"18/07/27","20:10",0.0,30.0,62.7,997.4,197.4,1.1,2.9,220.8,0.00,22.1,29.1,"20:09:04",1
"18/07/27","20:20",0.0,29.8,63.1,997.4,215.7,1.0,2.0,186.9,0.00,22.1,28.9,"20:14:48",1
"18/07/27","20:30",0.0,29.8,65.5,997.4,186.2,1.0,2.0,233.1,0.00,22.7,29.0,"20:20:40",1
"18/07/27","20:40",0.0,29.3,66.7,997.9,156.0,0.6,1.3,336.8,0.00,22.5,28.9,"20:30:08",1
"18/07/27","20:50",0.0,29.2,69.4,998.2,239.3,0.6,1.6,220.1,0.00,23.1,29.0,"20:42:00",1
"18/07/27","21:00",0.0,28.7,69.6,998.4,219.5,0.6,2.0,195.7,0.00,22.6,28.8,"20:58:48",1
"18/07/27","21:10",0.0,28.9,68.7,997.9,158.3,0.6,1.4,142.8,0.00,22.6,28.8,"21:05:04",1
"18/07/27","21:20",0.0,28.8,68.2,998.4,166.5,1.0,2.5,163.7,0.00,22.4,28.7,"21:15:04",1
"18/07/27","21:30",0.0,28.7,68.5,998.6,132.3,0.8,1.8,131.2,0.00,22.4,28.5,"21:20:16",1
"18/07/27","21:40",0.0,28.7,68.3,998.9,157.2,1.2,2.6,156.0,0.00,22.3,28.6,"21:33:36",1
"18/07/27","21:50",0.0,28.6,68.7,998.4,151.7,1.0,2.2,118.3,0.00,22.3,28.5,"21:43:20",1
"18/07/27","22:00",0.0,28.3,69.4,998.9,166.2,0.7,1.4,145.6,0.00,22.2,28.4,"21:51:20",1
"18/07/27","22:10",0.0,28.2,70.0,999.1,162.6,0.6,1.7,155.8,0.00,22.2,28.3,"22:02:00",1
"18/07/27","22:20",0.0,28.0,70.8,999.1,161.7,0.5,1.4,125.5,0.00,22.2,28.6,"22:17:36",1
"18/07/27","22:30",0.0,27.9,71.4,998.9,197.7,0.3,1.2,151.0,0.00,22.3,28.3,"22:23:04",1
"18/07/27","22:40",0.0,27.8,73.0,998.9,336.6,0.8,1.7,341.0,0.00,22.6,28.2,"22:39:44",1
"18/07/27","22:50",0.0,27.5,74.4,998.6,345.7,0.8,1.6,354.2,0.00,22.6,28.0,"22:48:08",1
"18/07/27","23:00",0.0,27.4,73.6,998.9,200.2,0.7,2.0,155.8,0.00,22.3,28.2,"22:59:28",1
"18/07/27","23:10",0.0,27.7,71.9,999.1,177.4,0.8,2.1,137.6,0.00,22.2,28.0,"23:01:36",1
"18/07/27","23:20",0.0,27.7,71.8,999.6,172.0,0.5,1.7,207.2,0.00,22.2,28.1,"23:10:56",1
"18/07/27","23:30",0.0,27.6,72.6,998.9,226.8,0.5,1.1,247.3,0.00,22.3,28.0,"23:26:56",1
"18/07/27","23:40",0.0,27.5,73.5,999.1,330.6,0.8,1.3,350.0,0.00,22.4,28.0,"23:32:40",1
"18/07/27","23:50",0.0,27.2,75.7,998.9,333.4,1.2,2.1,334.4,0.00,22.6,27.8,"23:45:04",1
"18/07/27","24:00",0.0,26.8,77.4,998.6,331.4,1.1,1.8,340.9,0.00,22.6,27.7,"23:52:32",1
